#timestamp,LO_Frequency,Hit,StdDev 
1637719215.0,286046999.4,N
1637719215.9,286046999.4,N
1637719235.8,286046996.9,N
1637719255.6,286046996.5,N
1637719275.5,286046997.7,N
1637719295.3,286046995.3,Y
1637719315.1,286046998.9,P
1637719335.9,286046998.5,P
1637719355.7,286046998.7,P
1637719375.6,286047001.0,Y
1637719395.4,286047000.3,P
1637719415.3,286047002.7,P
1637719435.1,286047000.0,N
1637719436.0,286047000.0,N
1637719455.8,286047000.0,N
1637719475.7,286047000.9,N
1637719495.5,286046998.4,N
1637719515.3,286047000.9,N
1637719535.2,286046998.2,N
1637719555.0,286046998.2,N
1637719555.9,286046998.2,N
1637719575.8,286046998.3,N
1637719595.6,286047001.2,N
1637719615.4,286047001.1,N
1637719635.3,286047001.2,N
1637719655.1,286046999.2,N
1637719675.8,286046998.7,N
1637719695.7,286047000.7,N
1637719715.5,286047000.4,N
1637719735.4,286047000.8,N
1637719755.2,286046997.0,N
1637719775.0,286046997.0,N
1637719775.9,286046997.0,N
1637719795.8,286046996.8,N
1637719815.6,286046999.3,N
1637719835.4,286046996.5,N
1637719855.3,286046997.7,N
1637719875.1,286046997.2,N
1637719895.9,286046997.3,N
1637719915.7,286046997.7,N
1637719935.5,286046997.5,N
1637719955.4,286046997.7,N
1637719975.2,286046997.0,N
1637719995.0,286046999.6,N
1637719995.9,286046999.6,N
1637720015.8,286046998.4,N
1637720035.6,286046998.4,N
1637720055.5,286046999.3,N
1637720075.3,286046998.3,N
1637720095.1,286046996.9,N
1637720115.9,286046996.7,N
1637720135.7,286046996.7,N
1637720155.5,286046997.4,N
1637720175.4,286046995.1,Y
1637720195.2,286046999.3,P
1637720215.1,286046999.1,N
1637720216.0,286046999.1,N
1637720235.8,286046998.3,Y
1637720255.6,286047001.2,P
1637720275.5,286046998.2,N
1637720295.3,286047000.8,N
1637720315.1,286047000.9,N
1637720365.9,286046997.5,E
1637720375.8,286046997.1,N
1637720395.7,286046998.8,P
1637720415.5,286046998.7,N
1637720435.3,286047000.3,N
1637720455.2,286047002.8,N
1637720475.0,286047002.2,N
1637720475.9,286047002.2,N
1637720495.8,286047001.9,N
1637720515.6,286047002.7,N
1637720535.4,286047002.6,N
1637720555.3,286047002.2,N
1637720575.1,286046999.7,N
1637720595.9,286047002.3,N
1637720615.7,286047001.9,N
1637720635.5,286047001.5,N
1637720655.4,286047001.4,N
1637720675.2,286047004.0,N
1637720695.0,286047003.0,N
1637720695.9,286047003.0,N
1637720715.8,286047001.3,N
1637720735.6,286047004.0,N
1637720755.5,286047003.0,N
1637720775.3,286047005.4,Y
1637720795.1,286047003.4,P
1637720815.9,286047003.0,P
1637720835.7,286047005.9,P
1637720855.6,286047003.1,N
1637720875.4,286047002.9,N
1637720895.2,286047003.7,N
1637720915.1,286047003.4,N
1637720916.0,286047003.4,Y
1637720935.8,286047001.0,P
1637720955.6,286046998.1,N
1637720975.0,286047000.9,N
1637720975.9,286047000.9,N
1637720995.8,286047001.0,N
1637721015.6,286046998.3,N
1637721035.4,286046998.5,N
1637721055.3,286046998.7,N
1637721075.1,286046998.3,N
1637721095.8,286046998.6,N
1637721115.2,286047000.9,N
1637721135.0,286047000.7,N
1637721135.9,286047000.7,N
1637721155.8,286047000.2,N
1637721175.6,286047002.6,N
1637721195.5,286047001.6,N
1637721215.3,286047002.5,N
1637721235.1,286047001.6,N
1637721255.9,286047002.1,N
1637721275.7,286047002.8,N
1637721295.5,286047000.3,N
1637721315.4,286047000.8,N
1637721335.2,286046998.1,N
1637721355.0,286046999.7,N
1637721356.0,286046999.7,N
1637721375.8,286047002.7,N
1637721395.6,286047002.7,N
1637721415.5,286047002.4,N
1637721435.3,286047002.1,N
1637721455.1,286047001.9,N
1637721475.9,286047002.8,N
1637721495.7,286047002.4,N
1637721515.6,286047002.2,N
1637721535.4,286047001.6,N
1637721555.2,286047003.7,N
1637721575.1,286047003.8,N
1637721576.0,286047003.8,N
1637721595.8,286047004.1,N
1637721615.7,286047003.3,N
1637721635.5,286047003.6,N
1637721655.3,286047004.2,N
1637721675.2,286047001.3,N
1637721695.9,286047001.4,N
1637721715.7,286047004.1,N
1637721735.6,286047004.4,Y
1637721755.4,286046999.7,P
1637721775.3,286047002.2,N
1637721795.1,286047002.3,N
1637721796.0,286047002.3,N
1637721815.8,286047001.6,N
1637721835.7,286047002.6,N
1637721855.5,286046998.4,N
1637721875.3,286046998.9,N
1637721895.2,286046998.7,N
1637721915.0,286046998.3,N
1637721915.9,286046998.3,N
1637721935.8,286046998.3,N
1637721955.6,286047000.7,N
1637721975.4,286047000.2,N
1637721995.3,286046999.8,N
1637722015.1,286047002.8,N
1637722035.8,286047001.4,N
1637722055.7,286046999.7,N
1637722075.5,286047002.6,N
1637722095.4,286047002.8,N
1637722115.2,286047002.0,N
1637722135.0,286047002.4,N
1637722135.9,286047002.4,N
1637722155.8,286047000.1,N
1637722175.6,286047000.6,N
1637722195.5,286047000.6,N
1637722215.3,286047000.1,N
1637722235.1,286047002.2,N
1637722255.9,286047001.4,N
1637722275.7,286046999.7,N
1637722295.5,286046999.7,N
1637722315.4,286047000.7,N
1637722335.2,286047001.0,N
1637722355.1,286047000.7,N
1637722356.0,286047000.7,N
1637722375.8,286047001.1,N
1637722395.6,286047000.4,N
1637722415.5,286046999.8,N
1637722435.3,286047000.6,N
1637722455.1,286047002.6,N
1637722475.9,286046999.9,N
1637722495.7,286046999.4,N
1637722515.6,286046997.8,N
1637722535.4,286046997.0,N
1637722555.2,286046999.2,N
1637722575.1,286046998.1,N
1637722576.0,286046998.1,N
1637722595.8,286047001.2,N
1637722615.7,286047000.9,N
1637722635.5,286046999.9,N
1637722655.3,286047001.7,N
1637722675.2,286047001.6,N
1637722695.0,286047001.5,N
1637722695.9,286047001.5,N
1637722715.7,286047002.5,N
1637722735.6,286047002.5,N
1637722755.4,286047002.1,N
1637722775.3,286047000.4,N
1637722795.1,286046999.7,N
1637722796.0,286046999.7,N
